Regional Weather Roundup
Issued by NWS

Home | Current Version | Previous Version | Graphics & Text | Print | Product List | Glossary On
Versions: 1 2 3 4 5 6 7 8 9 10 11 12 13 14 15 16 17 18 19 20 21 22 23 24 25 26 27 28 29 30 31 32 33 34 35 36 37 38 39 40 41 42 43 44 45 46 47 48 49 50
136
ASUS45 KBOU 141007
RWRCO

WEATHER ROUNDUP FOR COLORADO
NATIONAL WEATHER SERVICE DENVER/BOULDER CO
300 AM MST SUN FEB 14 2016

NOTE: "FAIR" INDICATES FEW OR NO CLOUDS BELOW 12000 FEET WITH NO
SIGNIFICANT WEATHER AND/OR OBSTRUCTIONS TO VISIBILITY.

COZ001>005-013-030-031-141100-
...NORTHWEST COLORADO...

CITY           SKY/WX    TMP DP  RH WIND       PRES   REMARKS
CRAIG          FAIR       5   0  79 CALM      30.18F
HAYDEN         FAIR      19  12  73 SE6       30.15F WCI  11
MEEKER         FAIR      16  11  80 CALM      30.17F
MOUNT WERNER   NOT AVBL
STEAMBOAT SPGS FAIR      18  13  84 CALM      30.16F
WALDEN         FAIR      30   7  37 SW12G20   30.10F WCI  21
$$

COZ006>008-011-141100-
...WEST CENTRAL VALLEYS...

CITY           SKY/WX    TMP DP  RH WIND       PRES   REMARKS
GRAND JUNCTION FAIR      28  25  88 E3        30.19F
MONTROSE       FAIR      27  21  78 S6        30.21F WCI  20
EAGLE          FAIR      21  19  93 E3        30.20F
RIFLE          FAIR      21  16  81 S3        30.20F
DELTA          FAIR      29  27  90 CALM      30.21F
NUCLA          FAIR      30  23  74 SE5       30.24F WCI  25
$$

COZ017>023-064>068-141100-
...SOUTHWEST COLORADO...

CITY           SKY/WX    TMP DP  RH WIND       PRES   REMARKS
DURANGO        FAIR      27  17  66 CALM      30.15F
CORTEZ         FAIR      24  19  81 NE9       30.18F WCI  14
PAGOSA SPRINGS FAIR      26  16  67 CALM      30.17S
TELLURIDE      NOT AVBL
WOLF CREEK PAS FAIR      27 -17  14 W6G17     30.27F WCI  20
$$

COZ009-010-012-014-032>034-037-058>063-141100-
...CENTRAL COLORADO...

CITY           SKY/WX    TMP DP  RH WIND       PRES   REMARKS
ASPEN          FAIR      18   9  68 S8        30.17F WCI   8
BUENA VISTA    FAIR      35  10  34 W10       30.10F WCI  28
COPPER MTN     FAIR      23   5  46 W13G24    30.17F WCI  11
BERTHOUD PASS  FAIR      12   3  67 NW40G52   30.08F WCI -12
COTTONWOOD PAS FAIR      34   3  27 W18G32    30.12F WCI  23
GUNNISON       FAIR       0 N/A N/A NE6       30.25F WCI -12
KREMMLING      FAIR      14   9  79 E5        30.17F WCI   6
LEADVILLE      FAIR      22   8  55 N8        30.15F WCI  12
MONARCH PASS   FAIR      19   9  63 W40       30.27F WCI  -2
SALIDA         NOT AVBL
SUNLIGHT       FAIR      23  16  74 CALM        N/A
WILKERSON PASS MOCLDY    23   3  42 W20G33    30.08F WCI   8
$$

COZ069>075-141100-
...SAN LUIS VALLEY/SANGRE DE CRISTO MOUNTAINS...

CITY           SKY/WX    TMP DP  RH WIND       PRES   REMARKS
ALAMOSA        FAIR      24  18  77 W3        30.14F
LA VETA PASS   FAIR      28   5  37 S12       30.15F WCI  18
SAGUACHE       FAIR      34  16  47 N12       30.14F WCI  25
$$

COZ035-036-038>040-141100-
...NORTHERN COLORADO FRONT RANGE...

CITY           SKY/WX    TMP DP  RH WIND       PRES   REMARKS
DENVER INTL AP FAIR      30  24  78 S13       29.99F WCI  20
DMNS CITY PARK   N/A     34  23  62 S3G14     29.99F
AURORA         PTCLDY    28  25  88 S10       30.00F WCI  19
FRONT RANGE AP   N/A     30  27  86 S8        30.00F WCI  23
ERIE MUNI ARPT FAIR      36  25  65 S12       29.98F
BOULDER MUN AP FAIR      36  25  64 E9        29.94F
CENTENNIAL     FAIR      31  23  72 S12       29.99F WCI  22
BROOMFIELD     FAIR      36  25  64 S18       29.99F
FORT COLLINS   FAIR      34  25  69 S12       29.96F WCI  25
LONGMONT       FAIR      38  26  61 SE10G17   29.98F
$$

COZ041-046-047-076>085-087-088-141100-
...PIKES PEAK/PALMER DIVIDE AND SOUTHERN FOOTHILLS...

CITY           SKY/WX    TMP DP  RH WIND       PRES   REMARKS
COLO. SPRINGS  FAIR      34  19  54 N8        30.04F WCI  27
A. F. ACADEMY  FAIR      29  18  64 NW1       30.03F
SCHRIEVER AFB  FAIR      30  22  71 NW12G20   30.03F WCI  20
ELLICOTT       FAIR     N/A N/A N/A N6        30.01S
FALCON         FAIR      28  20  71 N8        30.04F WCI  20
FORT CARSON    FAIR      31  19  61 SW8       30.04R WCI  24
LIMON          FAIR      25  23  92 W9        30.02F WCI  15
MONUMENT HILL  FAIR      27  19  74 S7        30.03F WCI  19
TRINIDAD       FAIR      33  26  75 VRB5      30.13R WCI  29
$$

COZ042>045-048>051-090-091-141100-
...NORTHEAST COLORADO...

CITY           SKY/WX    TMP DP  RH WIND       PRES   REMARKS
GREELEY ARPT   FAIR      34  21  60 S5        29.97F WCI  30
AKRON          FAIR      32  23  69 N21       29.97F WCI  20
BURLINGTON     FAIR      31  22  69 NW8       30.00F WCI  23
WRAY           FAIR      29  25  86 W8        30.00F WCI  21
STERLING       FAIR      32  23  69 N5        29.99F WCI  27
HOLYOKE        FAIR      36  28  75 W8        29.99F
FORT MORGAN    FAIR      34  19  54 N17       29.96F WCI  23
$$

COZ086-089-092>099-141100-
...SOUTHEAST COLORADO...

CITY           SKY/WX    TMP DP  RH WIND       PRES   REMARKS
PUEBLO         FAIR      34  26  72 S6        30.08R WCI  29
LA JUNTA       FAIR      31  26  82 SW10      30.07S WCI  22
LAMAR          FAIR      26  24  92 SW9       30.04R WCI  17
SPRINGFIELD      N/A     31  26  82 N15       30.04S WCI  20
$$




USA.gov is the U.S. government's official web portal to all federal, state and local government web resources and services.